Location: Caramacate
(10.0289°N, 66.7587°W)
Time: 20:20:28
(UTC+00:00)

Fermi - Pass Details

Date: 05 August 2024
Orbit: 506 x 519 km, 25.6° (Epoch: 07 September)

Event Time Altitude Azimuth Distance (km) Brightness Sun altitude
Rises 23:04:02 0° 230° (SW) 2,608 7.8 -4.5°
Reaches altitude 10° 23:06:23 10° 221° (SW) 1,725 6.7 -5.0°
Maximum altitude 23:10:06 37° 153° (SSE) 804 4.3 -5.9°
Drops below altitude 10° 23:13:49 10° 84° (E) 1,734 5.8 -6.7°
Enters shadow 23:14:47 - 80° (E) 2,087 6.2 -7.0°
